Location: Antist
(43.1184°N, 0.1270°E)
Time: 21:16:03
(UTC+00:00)

Cosmos 2219 Rocket - Pass Details

Date: 19 January 2020
Orbit: 827 x 848 km, 71.0° (Epoch: 16 February)

Event Time Altitude Azimuth Distance (km) Brightness Sun altitude
Rises 17:22:41 0° 338° (NNW) 3,420 5.4 -5.6°
Reaches altitude 10° 17:25:12 10° 342° (NNW) 2,480 4.6 -6.0°
Maximum altitude 17:30:49 57° 61° (ENE) 990 2.3 -6.9°
Drops below altitude 10° 17:36:22 10° 140° (SE) 2,456 4.4 -7.9°
Sets 17:38:50 0° 145° (SE) 3,385 5.2 -8.3°
